Weather History for KPYX - March, 2014

Change the Weather History Date:

Saturday, March 15, 2014

  Actual Average Record
Temperature  
Mean Temperature 50 °F -  
Max Temperature 68 °F 62 °F 86 °F (2013)
Min Temperature 32 °F 29 °F 20 °F (1989)
Degree Days  
Heating Degree Days 16    
Moisture  
Dew Point 25 °F    
Average Humidity 41    
Maximum Humidity 64    
Minimum Humidity 21    
Precipitation  
Precipitation 0.00 in - - ()
Sea Level Pressure  
Sea Level Pressure 29.87 in    
Wind  
Wind Speed 11 mph (SW)    
Max Wind Speed 40 mph    
Max Gust Speed 52 mph    
Visibility 9 miles    
Events      
Averages and records for this station are not official NWS values.
T = Trace of Precipitation, MM = Missing Value Source: NWS Daily Summary

Daily Weather History Graph

Daily Weather History Graph

Search for Another Location

Airport or City:

Trip Planner

Search our weather history database for the weather conditions in past years. The results will help you decide how hot, cold, wet, or windy it might be!

Date:

Astronomy

Mar. 15, 2014 Rise Set
Actual Time 7:53 AM CDT 7:50 PM CDT
Civil Twilight 7:28 AM CDT 8:16 PM CDT
Nautical Twilight 6:58 AM CDT 8:46 PM CDT
Astronomical Twilight 6:28 AM CDT 9:16 PM CDT
Moon 7:11 PM CDT (3/15) 7:05 AM CDT (3/15)
Length of Visible Light 12h 48m
Length of Day
11h 56m
Waxing Gibbous, 99% of the Moon is Illuminated
Mar 15
Waxing Gibbous
Mar 16
Full
Mar 23
Last Quarter
Mar 30
New
Apr 7
First Quarter

Hourly Weather History & Observations

Time (CDT) Temp. Windchill Dew Point Humidity Pressure Visibility Wind Dir Wind Speed Gust Speed Precip Events Conditions
12:15 AM 38.8 °F 33.8 °F 17.2 °F 42% 30.00 in 10.0 mi SSE 6.9 mph - N/A   Clear
12:35 AM 39.9 °F 35.8 °F 17.4 °F 40% 29.99 in 10.0 mi ESE 5.8 mph - N/A   Clear
12:55 AM 40.6 °F 36.0 °F 20.1 °F 44% 29.98 in 10.0 mi SE 6.9 mph - N/A   Clear
1:15 AM 41.2 °F 36.6 °F 20.3 °F 43% 29.97 in 10.0 mi ESE 6.9 mph - N/A   Clear
1:35 AM 42.4 °F 36.5 °F 19.9 °F 41% 29.96 in 10.0 mi SE 10.4 mph - N/A   Clear
1:55 AM 35.8 °F 30.1 °F 18.7 °F 50% 29.96 in 10.0 mi SE 6.9 mph - N/A   Clear
2:15 AM 35.8 °F 30.9 °F 18.5 °F 50% 29.96 in 10.0 mi SSE 5.8 mph - N/A   Clear
2:35 AM 33.3 °F 27.1 °F 17.2 °F 52% 29.96 in 10.0 mi SSE 6.9 mph - N/A   Clear
2:55 AM 35.2 °F 27.6 °F 18.3 °F 50% 29.95 in 10.0 mi South 10.4 mph - N/A   Clear
3:15 AM 34.7 °F 26.9 °F 19.4 °F 54% 29.94 in 10.0 mi SSE 10.4 mph - N/A   Clear
3:35 AM 37.0 °F 31.6 °F 20.7 °F 52% 29.94 in 10.0 mi South 6.9 mph - N/A   Clear
3:55 AM 33.6 °F 26.8 °F 19.4 °F 56% 29.92 in 10.0 mi SSE 8.1 mph - N/A   Clear
4:15 AM 34.7 °F 28.1 °F 19.8 °F 54% 29.91 in 10.0 mi South 8.1 mph - N/A   Clear
4:35 AM 33.3 °F 26.4 °F 20.1 °F 59% 29.91 in 10.0 mi South 8.1 mph - N/A   Clear
4:55 AM 32.0 °F 27.5 °F 19.4 °F 60% 29.90 in 10.0 mi South 4.6 mph - N/A   Scattered Clouds
5:15 AM 33.8 °F 29.6 °F 20.1 °F 57% 29.90 in 10.0 mi South 4.6 mph - N/A   Scattered Clouds
5:35 AM 35.1 °F 31.0 °F 20.3 °F 55% 29.89 in 10.0 mi South 4.6 mph - N/A   Scattered Clouds
5:55 AM 33.3 °F 27.1 °F 20.1 °F 59% 29.90 in 10.0 mi SSW 6.9 mph - N/A   Mostly Cloudy
6:15 AM 35.8 °F 30.1 °F 21.0 °F 55% 29.89 in 10.0 mi SSW 6.9 mph - N/A   Mostly Cloudy
6:35 AM 34.7 °F 28.8 °F 20.3 °F 56% 29.89 in 10.0 mi SSW 6.9 mph - N/A   Mostly Cloudy
6:55 AM 35.1 °F 30.1 °F 21.4 °F 57% 29.88 in 10.0 mi South 5.8 mph - N/A   Mostly Cloudy
7:15 AM 36.5 °F 31.8 °F 21.7 °F 55% 29.88 in 10.0 mi WSW 5.8 mph - N/A   Scattered Clouds
7:35 AM 34.0 °F 28.0 °F 21.2 °F 60% 29.88 in 10.0 mi West 6.9 mph - N/A   Scattered Clouds
7:55 AM 33.4 °F 26.6 °F 21.0 °F 60% 29.88 in 10.0 mi West 8.1 mph - N/A   Clear
8:15 AM 32.9 °F 27.5 °F 20.8 °F 61% 29.88 in 10.0 mi WSW 5.8 mph - N/A   Clear
8:35 AM 35.2 °F 30.3 °F 22.1 °F 59% 29.88 in 10.0 mi SW 5.8 mph - N/A   Mostly Cloudy
8:55 AM 38.5 °F 35.0 °F 25.2 °F 59% 29.88 in 10.0 mi SW 4.6 mph - N/A   Overcast
9:15 AM 44.1 °F 40.8 °F 26.2 °F 50% 29.87 in 10.0 mi WSW 5.8 mph - N/A   Overcast
9:35 AM 47.1 °F - 27.1 °F 46% 29.87 in 10.0 mi West 4.6 mph - N/A   Overcast
9:55 AM 48.4 °F - 27.3 °F 44% 29.86 in 10.0 mi SW 6.9 mph - N/A   Overcast
10:15 AM 50.7 °F - 26.8 °F 40% 29.86 in 10.0 mi WSW 8.1 mph - N/A   Mostly Cloudy
10:35 AM 53.2 °F - 27.3 °F 37% 29.85 in 10.0 mi WSW 8.1 mph - N/A   Scattered Clouds
10:55 AM 55.6 °F - 28.8 °F 36% 29.85 in 10.0 mi SW 6.9 mph - N/A   Clear
11:15 AM 57.4 °F - 29.5 °F 35% 29.85 in 10.0 mi WSW 8.1 mph - N/A   Clear
11:35 AM 58.6 °F - 29.7 °F 33% 29.84 in 10.0 mi SW 8.1 mph - N/A   Clear
11:55 AM 60.1 °F - 29.7 °F 32% 29.83 in 10.0 mi SW 8.1 mph - N/A   Clear
12:15 PM 61.3 °F - 29.5 °F 30% 29.82 in 10.0 mi SSW 3.5 mph - N/A   Clear
12:35 PM 63.0 °F - 28.0 °F 27% 29.81 in 10.0 mi SW 3.5 mph - N/A   Clear
1:15 PM 66.4 °F - 26.6 °F 22% 29.80 in 10.0 mi South 5.8 mph - N/A   Clear
1:35 PM 65.8 °F - 27.0 °F 23% 29.80 in 10.0 mi South 8.1 mph - N/A   Mostly Cloudy
1:55 PM 66.2 °F - 27.5 °F 23% 29.79 in 10.0 mi SSW 6.9 mph - N/A   Overcast
2:15 PM 64.6 °F - 26.6 °F 24% 29.79 in 10.0 mi South 6.9 mph - N/A   Overcast
2:35 PM 65.3 °F - 26.2 °F 23% 29.78 in 10.0 mi Calm Calm - N/A   Overcast
2:55 PM 65.5 °F - 27.1 °F 24% 29.76 in 10.0 mi South 3.5 mph - N/A   Overcast
3:15 PM 66.0 °F - 27.3 °F 23% 29.76 in 10.0 mi ESE 6.9 mph - N/A   Overcast
3:35 PM 67.1 °F - 25.7 °F 21% 29.75 in 10.0 mi Calm Calm - N/A   Overcast
3:55 PM 67.3 °F - 26.6 °F 22% 29.75 in 10.0 mi South 3.5 mph - N/A   Scattered Clouds
4:15 PM 66.7 °F - 27.0 °F 22% 29.74 in 10.0 mi West 3.5 mph - N/A   Clear
4:35 PM 66.9 °F - 25.9 °F 21% 29.74 in 10.0 mi North 4.6 mph - N/A   Scattered Clouds
4:55 PM 66.4 °F - 28.2 °F 24% 29.74 in 10.0 mi NNW 17.3 mph - N/A   Mostly Cloudy
5:15 PM 65.3 °F - 28.6 °F 25% 29.75 in 10.0 mi NNW 23.0 mph 27.6 mph N/A   Overcast
5:35 PM 64.6 °F - 28.8 °F 26% 29.76 in 10.0 mi NNW 21.9 mph 27.6 mph N/A   Overcast
5:55 PM 63.5 °F - 28.6 °F 27% 29.76 in 5.0 mi NNW 27.6 mph 33.4 mph N/A   Mostly Cloudy
6:15 PM 63.1 °F - 28.8 °F 27% 29.77 in 10.0 mi North 24.2 mph 32.2 mph N/A   Mostly Cloudy
6:35 PM 63.0 °F - 28.8 °F 28% 29.79 in 10.0 mi North 16.1 mph 24.2 mph N/A   Overcast
6:55 PM 62.6 °F - 27.5 °F 26% 29.79 in 7.0 mi North 32.2 mph 40.3 mph N/A   Overcast
7:15 PM 62.2 °F - 28.4 °F 28% 29.80 in 10.0 mi NNE 18.4 mph 27.6 mph N/A   Mostly Cloudy
7:35 PM 61.5 °F - 25.7 °F 26% 29.82 in 4.0 mi North 28.8 mph 40.3 mph N/A   Mostly Cloudy
7:55 PM 59.7 °F - 22.6 °F 24% 29.85 in 2.0 mi North 36.8 mph 43.7 mph N/A   Overcast
8:15 PM 58.1 °F - 22.8 °F 26% 29.85 in 1.5 mi North 38.0 mph 50.6 mph N/A   Mostly Cloudy
8:35 PM 56.7 °F - 23.4 °F 28% 29.88 in 2.5 mi North 38.0 mph 48.3 mph N/A   Scattered Clouds
8:55 PM 56.1 °F - 23.9 °F 29% 29.89 in 4.0 mi North 38.0 mph 49.5 mph N/A   Clear
9:15 PM 54.5 °F - 30.7 °F 40% 29.91 in 4.0 mi North 33.4 mph 40.3 mph N/A   Clear
9:35 PM 53.2 °F - 28.6 °F 39% 29.94 in 2.5 mi North 32.2 mph 47.2 mph N/A   Scattered Clouds
9:55 PM 52.5 °F - 31.5 °F 45% 29.96 in 4.0 mi North 36.8 mph 48.3 mph N/A   Scattered Clouds
10:15 PM 52.2 °F - 30.6 °F 44% 29.97 in 4.0 mi North 40.3 mph 51.8 mph N/A   Mostly Cloudy
10:35 PM 50.5 °F - 32.0 °F 49% 29.99 in 2.5 mi North 35.7 mph 50.6 mph N/A   Overcast
10:55 PM 49.1 °F - 32.7 °F 53% 30.01 in 1.5 mi NNW 34.5 mph 48.3 mph N/A   Overcast
11:15 PM 47.3 °F - 33.6 °F 59% 30.03 in 3.0 mi North 38.0 mph 46.0 mph N/A   Overcast
11:35 PM 45.7 °F 35.9 °F 33.8 °F 63% 30.05 in 3.0 mi North 32.2 mph 47.2 mph N/A   Overcast
11:55 PM 44.6 °F 34.7 °F 33.1 °F 64% 30.06 in 7.0 mi North 29.9 mph 42.6 mph N/A   Scattered Clouds